Location: Village de las Huertas
(35.3014°N, 106.4095°W)
Time: 20:45:18
(UTC+00:00)

N. Korean satellite - Visible Passes

Search period start: 18 January 2021 00:00
Search period end: 28 January 2021 00:00
Orbit: 453 x 502 km, 97.2° (Epoch: 17 January)

Date Brightness Start Highest point End Pass type
(mag) Time Alt. Az. Time Alt. Az. Time Alt. Az.
18 Jan 6.3 12:38:44 10° N 12:42:12 68° WNW 12:45:37 10° SSW visible
19 Jan 9.8 00:44:40 10° SW 00:47:02 16° W 00:49:25 10° NW visible
19 Jan 7.5 12:12:17 10° NNE 12:15:39 45° E 12:18:56 10° S visible
20 Jan 9.2 11:46:27 10° NE 11:48:59 19° E 11:51:30 10° SE visible
20 Jan 7.9 13:19:43 10° NNW 13:22:09 18° WNW 13:24:34 10° WSW visible
21 Jan 6.8 12:52:27 10° N 12:55:45 41° WNW 12:58:58 10° SW visible
22 Jan 10.4 00:59:55 10° WSW 01:00:44 11° W 01:01:33 10° W visible
22 Jan 6.5 12:25:46 10° NNE 12:29:14 75° E 12:32:37 10° S visible
23 Jan 8.4 11:59:33 10° NE 12:02:37 29° E 12:05:37 10° SSE visible
23 Jan 8.3 13:34:12 10° NW 13:35:35 12° WNW 13:36:59 10° W visible
24 Jan 9.8 11:34:18 10° ENE 11:35:53 13° E 11:37:28 10° ESE visible
24 Jan 7.4 13:06:19 10° NNW 13:09:14 26° WNW 13:12:07 10° SW visible
25 Jan 6.3 12:39:20 10° N 12:42:45 65° WNW 12:46:08 10° SSW visible
26 Jan 7.5 12:12:51 10° NNE 12:16:11 46° E 12:19:27 10° S visible
27 Jan 9.2 11:46:58 10° NE 11:49:30 19° E 11:52:01 10° SE visible
27 Jan 7.9 13:20:19 10° NNW 13:22:40 17° WNW 13:24:59 10° WSW visible
